SCP
0 0 0 0 0 0 0 0 0 0 0 0 0 0 0 0 0 0 0 0 0 0 0 0 0 0 0 0 0 0 0 0 0 0 0 0 0 0
0 0 0 0 0 0 0 0 0 0 0 0 0 0 0 0 0 0 0 -0 0 0 0 0 0 0 0 0 0 0 0 0 0 0 0 0 0 0
0 0 0 0 0 0 0 0 0 0 0 0 0 0 0 0 0 0 0 0 0 0 0 0 0 0 0 0 0 0 0 0 0 0 0 0 0 0
0 0 0 0 0 0 0 0 0 0 0 0 0 0 0 0 0 0 0 0 0 0 0 0 0 0 0 0 0 0 0 0 0 0 0 0 0 0
0 0 0 0 0 0 0 0 0 0 0 0 0 0 0 0 0 0 0 0 0 0 0 0 0 0 0 0 0 0 0 0 0 0 0 0 0 0
0 0 0 0 0 0 0 0 0 0 0 0 0 0 0 0 0 0 0 0 0 0 0 0 0 0 0 0 0 0 0 0 0 0 0 0 0 0
0 0 0 0 0 0 0 0 0 0 0 0 0 0 0 0 0 0 0 0 0 0 0 0 0 0 0 0 0 0 0 0 0 0 0 0 0 0
0 0 0 0 0 0 0 0 0 0 0 0 0 0 0 0 0 0 0 0 0 0 0 0 0 0 0 0 0 0 0 0 0 0 0 0 0 0
0 0 0 0 0 0 0 0 0 0 0 0 0 0 0 0 0 0 0 0 0 0 0 0 0 0 0 0 0 0 0 0 0 0 0 0 0 0
0 0 0 0 0 0 0 0 0 0 0 0 0 0 0 0 0 0 0 0 0 0 0 0 0 0 0 0 0 0 0 0 0 0 0 0 0 0
0 0 0 0 0 0 0 0 0 0 0 0 0 0 0 0 0 0 0 0 0 0 0 0 0 0 0 0 0 0 0 0 0 0 0 0 0 0
0 0 0 0 0 0 0 0 0 0 0 0 0 0 0 0 0 0 0 0 0 0 0 0 0 0 0 0 0 0 0 0 0 0 0 0 0 0
0 0 0 0 0 0 0 0 0 0 0 0 0 0 0 0 0 0 0 0 0 0 0 0 0 0 0 0 0 0 0 0 0 0 0 0 0 0
0 0 0 0 0 0 0 0 0 0 0 0 0 0 0 0 0 0 0 0 0 0 0 0 0 0 0 0 0 0 0 0 0 0 0 0 0 0
0 0 0 0 0 0 0 0 0 0 0 0 0 0 0 0 0 0 0 0 0 0 0 0 0 0 0 0 0 0 0 0 0 0 0 0 0 0
0 0 0 0 0 0 0 0 0 0 0 0 0 0 0 0 0 0 0 0 0 0 0 0 0 0 0 0 0 0 0 0 0 0 0 0 0 0
0 0 0 0 0 0 0 0 0 0 0 0 0 0 0 0 0 0 0 0 0 0 0 0 0 0 0 0 0 0 0 0 0 0 0 0 0 0
0 0 0 0 0 0 0 0 0 0 0 0 0 0 0 0 0 0 0 0 0 0 0 0 0 0 0 0 0 0 0 0 0 0 0 0 0 0
0 0 0 0 0 0 0 0 0 0 0 0 0 0 0 0 0 0 0 0 0 0 0 0 0 0 0 0 0 0 0 0 0 0 0 0 0 0
0 0 0 0 0 0 0 0 0 0 0 0 0 0 0 0 0 0 0 0 0 0 0 0 0 0 0 0 0 0 0 0 0 0 0 0 0 0
0 0 0 0 0 0 0 0 0 0 0 0 0 0 0 0 0 0 0 0 0 0 0 0 0 0 0 0 0 0 0 0 0 0 0 0 0 0
0 0 0 0 0 0 0 0 0 0 0 0 0 0 0 0 0 0 0 0 0 0 0 0 0 0 0 0 0 0 0 0 0 0 0 0 0 0
0 0 0 0 0 0 0 0 0 0 0 0 0 0 0 0 0 0 0 0 0 0 0 0 0 0 0 0 0 0 0 0 0 0 0 0 0 0
Wind_Speed_500mb
45 41 39 34 29 24 20 17 16 12 10 15 17 20 23 26 27 31 34 35 41 43 48 50 52 51 50 44 46 52 54 60 66 68 69 72 74 76
47 44 40 34 29 24 20 17 13 11 13 16 16 17 21 24 27 29 31 33 37 39 44 49 52 53 50 43 44 50 54 58 63 64 66 69 72 74
50 46 40 35 29 25 20 18 12 7 6 12 15 19 20 22 24 26 28 31 34 37 42 47 51 51 49 49 49 48 54 60 65 65 67 68 69 71
52 46 42 36 30 26 22 17 12 5 7 11 16 20 21 21 23 23 24 27 32 33 39 45 47 48 49 52 50 52 55 60 65 66 63 67 70 73
51 47 42 36 31 29 22 17 10 6 7 11 16 19 21 22 23 24 23 24 30 30 35 41 43 44 46 49 47 46 51 60 61 62 65 66 69 75
54 50 42 36 33 29 23 18 11 9 9 14 17 18 21 24 26 25 24 24 24 29 33 39 40 42 43 47 48 47 52 62 63 59 59 65 71 76
56 49 43 38 35 30 24 18 13 12 18 18 18 19 21 24 28 31 32 27 28 27 30 37 40 38 44 45 46 48 53 62 62 65 63 64 72 72
55 49 43 41 39 34 25 19 14 21 22 22 20 21 23 25 28 30 34 34 30 39 37 34 38 36 45 46 47 46 52 57 59 60 63 67 68 65
54 49 47 45 42 34 24 18 30 28 26 24 23 23 27 27 29 30 31 32 36 36 43 40 37 35 43 48 47 40 54 56 60 59 59 63 61 60
51 50 48 47 42 32 24 26 31 35 30 28 27 28 28 28 29 31 31 33 34 38 37 46 41 39 40 46 41 41 50 52 57 56 56 58 55 54
56 52 51 48 41 31 27 29 40 41 35 33 34 30 29 29 31 34 33 37 40 32 41 42 41 53 49 42 36 50 49 54 53 53 52 54 51 49
62 58 53 46 39 34 31 33 47 43 39 37 37 36 34 32 33 35 36 39 38 41 34 41 47 50 47 33 48 52 49 55 51 49 48 49 48 47
58 54 51 42 40 33 35 41 51 44 43 43 41 40 38 38 40 36 37 37 39 42 46 45 50 51 44 50 48 47 51 57 52 45 44 42 43 44
54 53 47 42 37 37 39 52 51 49 49 47 44 42 41 39 40 44 39 39 39 43 45 51 52 48 50 53 49 43 52 55 54 40 45 40 36 35
56 52 45 41 41 45 49 59 55 54 52 49 47 45 42 41 43 41 45 46 46 44 43 45 49 47 47 48 51 49 52 55 44 48 42 40 36 34
61 54 51 48 47 45 62 61 58 56 54 53 49 48 47 45 44 42 45 43 48 46 45 41 43 44 45 44 45 46 44 46 48 45 39 36 33 32
67 61 56 52 50 59 68 64 62 61 59 54 51 51 51 49 47 44 45 43 45 44 41 47 42 41 42 43 45 42 40 42 44 42 39 35 31 29
67 65 58 54 62 65 74 67 66 64 61 57 55 54 52 50 48 44 44 43 43 43 41 40 45 43 43 42 39 38 36 38 38 39 40 38 30 29
73 65 67 62 64 76 75 71 69 65 61 60 57 55 53 51 48 46 45 45 43 40 36 38 42 41 41 46 42 39 41 35 43 41 40 37 36 29
77 72 72 86 75 81 77 73 71 69 65 62 59 57 55 53 51 48 44 43 42 39 38 41 42 40 41 41 40 43 43 47 41 39 40 41 37 33
82 83 94 89 75 84 78 77 74 72 69 66 63 61 57 54 52 48 46 44 43 40 41 40 42 41 40 41 45 45 45 42 39 39 40 43 40 38
87 92 101 94 76 78 79 80 78 76 74 70 66 62 59 55 51 48 46 44 42 39 39 38 42 39 42 42 44 43 43 44 40 40 40 40 39 30
111 114 96 80 74 81 86 85 82 79 75 71 68 64 59 55 49 48 46 43 41 40 39 38 39 40 39 40 42 42 42 42 44 43 40 38 40 41
Wind_Direction_500mb
243 232 231 230 234 238 233 227 210 213 216 263 284 334 343 348 357 0 5 5 4 2 1 359 355 353 351 356 356 356 356 354 353 354 355 354 355 354
233 228 226 229 234 236 230 222 212 204 206 255 291 321 341 349 356 1 3 3 3 360 359 356 353 352 350 349 352 353 354 353 354 354 354 354 352 352
225 225 227 231 233 230 226 220 212 218 247 292 304 323 336 351 353 358 1 357 358 356 357 354 351 352 351 343 342 346 349 348 350 353 353 351 350 349
223 223 227 231 231 231 223 218 215 219 284 291 318 322 331 341 349 353 359 350 349 354 351 351 351 351 351 345 339 338 340 345 345 349 351 350 348 349
223 225 228 230 228 228 225 224 225 245 278 303 315 320 323 335 342 345 349 345 342 346 348 348 348 346 345 344 341 340 341 343 344 346 346 351 349 348
222 224 226 227 226 222 222 227 238 268 290 298 311 320 324 330 331 335 333 334 337 339 339 341 343 341 337 342 343 339 340 342 343 344 346 348 349 350
222 224 223 222 220 220 223 231 245 277 284 289 303 311 317 323 323 324 328 328 326 331 337 341 339 336 335 339 338 336 336 342 343 343 344 346 348 351
223 224 224 220 217 218 223 233 270 269 275 284 293 298 307 316 315 316 319 324 337 328 332 339 334 338 333 338 336 334 337 340 341 343 343 345 348 352
223 224 223 218 217 217 222 265 263 267 270 274 281 293 302 306 306 312 315 314 318 323 321 328 331 332 334 333 333 332 338 339 341 343 344 345 350 353
225 226 223 219 215 218 242 249 264 266 267 274 283 288 292 297 302 304 308 305 309 309 318 320 327 320 328 329 331 334 336 339 341 342 344 346 352 354
226 225 222 219 216 230 239 258 266 262 266 273 280 282 286 292 297 302 308 305 309 309 313 315 320 317 323 329 329 333 337 341 342 342 343 345 351 355
222 221 216 214 225 231 248 264 265 262 263 268 275 280 282 286 292 297 300 297 297 305 309 310 313 317 321 317 327 328 336 340 342 342 344 345 349 354
227 224 218 220 232 242 259 271 266 260 262 267 270 272 275 279 284 288 292 290 289 289 300 304 306 308 304 306 318 324 331 334 339 340 344 345 348 352
229 223 219 232 238 255 271 266 262 262 263 264 266 272 277 281 286 290 293 289 287 286 290 293 294 296 294 298 308 315 323 331 334 336 340 342 345 350
221 218 229 234 248 258 271 259 257 259 264 264 268 272 274 276 280 285 288 289 288 289 289 285 287 289 287 290 301 314 324 328 327 329 334 335 338 344
216 223 228 240 250 269 260 256 258 259 260 262 265 270 273 276 280 281 282 285 287 293 293 288 287 284 282 284 292 305 316 315 320 321 324 328 329 334
218 224 235 244 260 261 255 256 256 256 258 260 262 265 269 274 277 279 280 282 281 287 285 287 283 283 281 283 288 299 309 313 312 315 316 318 321 324
226 232 242 254 265 247 252 254 253 254 255 257 259 262 266 270 275 277 278 278 280 282 282 277 281 284 285 282 284 293 298 307 308 309 310 310 313 314
233 242 251 262 257 245 253 253 254 254 253 254 257 260 264 268 271 273 273 275 278 277 275 270 276 280 281 282 293 289 294 301 305 303 302 302 305 304
238 246 259 272 244 251 253 254 254 253 253 254 256 259 262 265 267 269 271 272 272 270 268 272 274 274 274 274 277 284 293 297 297 297 297 297 298 296
242 258 263 262 240 253 253 253 252 252 253 253 255 256 258 261 263 266 268 269 270 269 271 273 274 276 276 277 278 287 289 291 292 292 292 294 294 293
246 253 262 261 246 253 253 253 252 251 251 252 253 254 255 258 259 260 262 264 267 268 269 267 271 271 274 277 281 284 287 288 290 288 286 285 285 278
253 264 256 254 249 252 255 253 251 251 251 251 251 251 253 255 255 258 258 258 261 265 264 264 267 271 275 279 280 283 285 288 290 289 284 279 278 277
Wind_Speed_850mb
45 41 39 34 29 24 20 17 16 12 10 15 17 20 23 26 27 31 34 35 41 43 48 50 52 51 50 44 46 52 54 60 66 68 69 72 74 76
47 44 40 34 29 24 20 17 13 11 13 16 16 17 21 24 27 29 31 33 37 39 44 49 52 53 50 43 44 50 54 58 63 64 66 69 72 74
50 46 40 35 29 25 20 18 12 7 6 12 15 19 20 22 24 26 28 31 34 37 42 47 51 51 49 49 49 48 54 60 65 65 67 68 69 71
52 46 42 36 30 26 22 17 12 5 7 11 16 20 21 21 23 23 24 27 32 33 39 45 47 48 49 52 50 52 55 60 65 66 63 67 70 73
51 47 42 36 31 29 22 17 10 6 7 11 16 19 21 22 23 24 23 24 30 30 35 41 43 44 46 49 47 46 51 60 61 62 65 66 69 75
54 50 42 36 33 29 23 18 11 9 9 14 17 18 21 24 26 25 24 24 24 29 33 39 40 42 43 47 48 47 52 62 63 59 59 65 71 76
56 49 43 38 35 30 24 18 13 12 18 18 18 19 21 24 28 31 32 27 28 27 30 37 40 38 44 45 46 48 53 62 62 65 63 64 72 72
55 49 43 41 39 34 25 19 14 21 22 22 20 21 23 25 28 30 34 34 30 39 37 34 38 36 45 46 47 46 52 57 59 60 63 67 68 65
54 49 47 45 42 34 24 18 30 28 26 24 23 23 27 27 29 30 31 32 36 36 43 40 37 35 43 48 47 40 54 56 60 59 59 63 61 60
51 50 48 47 42 32 24 26 31 35 30 28 27 28 28 28 29 31 31 33 34 38 37 46 41 39 40 46 41 41 50 52 57 56 56 58 55 54
56 52 51 48 41 31 27 29 40 41 35 33 34 30 29 29 31 34 33 37 40 32 41 42 41 53 49 42 36 50 49 54 53 53 52 54 51 49
62 58 53 46 39 34 31 33 47 43 39 37 37 36 34 32 33 35 36 39 38 41 34 41 47 50 47 33 48 52 49 55 51 49 48 49 48 47
58 54 51 42 40 33 35 41 51 44 43 43 41 40 38 38 40 36 37 37 39 42 46 45 50 51 44 50 48 47 51 57 52 45 44 42 43 44
54 53 47 42 37 37 39 52 51 49 49 47 44 42 41 39 40 44 39 39 39 43 45 51 52 48 50 53 49 43 52 55 54 40 45 40 36 35
56 52 45 41 41 45 49 59 55 54 52 49 47 45 42 41 43 41 45 46 46 44 43 45 49 47 47 48 51 49 52 55 44 48 42 40 36 34
61 54 51 48 47 45 62 61 58 56 54 53 49 48 47 45 44 42 45 43 48 46 45 41 43 44 45 44 45 46 44 46 48 45 39 36 33 32
67 61 56 52 50 59 68 64 62 61 59 54 51 51 51 49 47 44 45 43 45 44 41 47 42 41 42 43 45 42 40 42 44 42 39 35 31 29
67 65 58 54 62 65 74 67 66 64 61 57 55 54 52 50 48 44 44 43 43 43 41 40 45 43 43 42 39 38 36 38 38 39 40 38 30 29
73 65 67 62 64 76 75 71 69 65 61 60 57 55 53 51 48 46 45 45 43 40 36 38 42 41 41 46 42 39 41 35 43 41 40 37 36 29
77 72 72 86 75 81 77 73 71 69 65 62 59 57 55 53 51 48 44 43 42 39 38 41 42 40 41 41 40 43 43 47 41 39 40 41 37 33
82 83 94 89 75 84 78 77 74 72 69 66 63 61 57 54 52 48 46 44 43 40 41 40 42 41 40 41 45 45 45 42 39 39 40 43 40 38
87 92 101 94 76 78 79 80 78 76 74 70 66 62 59 55 51 48 46 44 42 39 39 38 42 39 42 42 44 43 43 44 40 40 40 40 39 30
111 114 96 80 74 81 86 85 82 79 75 71 68 64 59 55 49 48 46 43 41 40 39 38 39 40 39 40 42 42 42 42 44 43 40 38 40 41
Wind_Direction_850mb
243 232 231 230 234 238 233 227 210 213 216 263 284 334 343 348 357 0 5 5 4 2 1 359 355 353 351 356 356 356 356 354 353 354 355 354 355 354
233 228 226 229 234 236 230 222 212 204 206 255 291 321 341 349 356 1 3 3 3 360 359 356 353 352 350 349 352 353 354 353 354 354 354 354 352 352
225 225 227 231 233 230 226 220 212 218 247 292 304 323 336 351 353 358 1 357 358 356 357 354 351 352 351 343 342 346 349 348 350 353 353 351 350 349
223 223 227 231 231 231 223 218 215 219 284 291 318 322 331 341 349 353 359 350 349 354 351 351 351 351 351 345 339 338 340 345 345 349 351 350 348 349
223 225 228 230 228 228 225 224 225 245 278 303 315 320 323 335 342 345 349 345 342 346 348 348 348 346 345 344 341 340 341 343 344 346 346 351 349 348
222 224 226 227 226 222 222 227 238 268 290 298 311 320 324 330 331 335 333 334 337 339 339 341 343 341 337 342 343 339 340 342 343 344 346 348 349 350
222 224 223 222 220 220 223 231 245 277 284 289 303 311 317 323 323 324 328 328 326 331 337 341 339 336 335 339 338 336 336 342 343 343 344 346 348 351
223 224 224 220 217 218 223 233 270 269 275 284 293 298 307 316 315 316 319 324 337 328 332 339 334 338 333 338 336 334 337 340 341 343 343 345 348 352
223 224 223 218 217 217 222 265 263 267 270 274 281 293 302 306 306 312 315 314 318 323 321 328 331 332 334 333 333 332 338 339 341 343 344 345 350 353
225 226 223 219 215 218 242 249 264 266 267 274 283 288 292 297 302 304 308 305 309 309 318 320 327 320 328 329 331 334 336 339 341 342 344 346 352 354
226 225 222 219 216 230 239 258 266 262 266 273 280 282 286 292 297 302 308 305 309 309 313 315 320 317 323 329 329 333 337 341 342 342 343 345 351 355
222 221 216 214 225 231 248 264 265 262 263 268 275 280 282 286 292 297 300 297 297 305 309 310 313 317 321 317 327 328 336 340 342 342 344 345 349 354
227 224 218 220 232 242 259 271 266 260 262 267 270 272 275 279 284 288 292 290 289 289 300 304 306 308 304 306 318 324 331 334 339 340 344 345 348 352
229 223 219 232 238 255 271 266 262 262 263 264 266 272 277 281 286 290 293 289 287 286 290 293 294 296 294 298 308 315 323 331 334 336 340 342 345 350
221 218 229 234 248 258 271 259 257 259 264 264 268 272 274 276 280 285 288 289 288 289 289 285 287 289 287 290 301 314 324 328 327 329 334 335 338 344
216 223 228 240 250 269 260 256 258 259 260 262 265 270 273 276 280 281 282 285 287 293 293 288 287 284 282 284 292 305 316 315 320 321 324 328 329 334
218 224 235 244 260 261 255 256 256 256 258 260 262 265 269 274 277 279 280 282 281 287 285 287 283 283 281 283 288 299 309 313 312 315 316 318 321 324
226 232 242 254 265 247 252 254 253 254 255 257 259 262 266 270 275 277 278 278 280 282 282 277 281 284 285 282 284 293 298 307 308 309 310 310 313 314
233 242 251 262 257 245 253 253 254 254 253 254 257 260 264 268 271 273 273 275 278 277 275 270 276 280 281 282 293 289 294 301 305 303 302 302 305 304
238 246 259 272 244 251 253 254 254 253 253 254 256 259 262 265 267 269 271 272 272 270 268 272 274 274 274 274 277 284 293 297 297 297 297 297 298 296
242 258 263 262 240 253 253 253 252 252 253 253 255 256 258 261 263 266 268 269 270 269 271 273 274 276 276 277 278 287 289 291 292 292 292 294 294 293
246 253 262 261 246 253 253 253 252 251 251 252 253 254 255 258 259 260 262 264 267 268 269 267 271 271 274 277 281 284 287 288 290 288 286 285 285 278
253 264 256 254 249 252 255 253 251 251 251 251 251 251 253 255 255 258 258 258 261 265 264 264 267 271 275 279 280 283 285 288 290 289 284 279 278 277